Content
SEND FEEDBACK

Daily
Averages
Monthly
Summary
United States of America

RAPID CITY, SOUTH DAKOTA


Home > North America > United States > South Dakota
Elevation: 3162 feet     Latitude: 44 03N     Longitude: 103 04W

WEATHER
 
SELECT A DAY
Number of Records: 200,374;   Date Range: 1/1/95 - 8/12/14
 
SHARE

PRINT THIS DATA

[ ← Previous Day ]
WEATHER ALMANAC - JUNE 21, 2013
[ Next Day → ]
[ °C ]   °F
Weather ElementAverageHighLow
Temperature64.3 °F73 °F (3:52 pm)60.1 °F (11:52 pm)
Dewpoint61 °F63 °F (8:52 am)57.9 °F (11:52 pm)
Humidity89 %100 % (8:00 am)66 % (3:52 pm)
Barometer29.89 in29.98 in (8:44 pm)29.80 in (6:52 am)
Wind Speed12.5 mph26.5 mph (7:35 am)
Wind Gust34.5 mph (7:35 am)
Weather ElementAverage
Visibility7.7 mi
Wind DirectionWSW (235.6 °)

Weather ElementTotal
Precipitation3.08 in
Cooling Degree Days1.6 (Base 65)
Growing Degree Days16.6 (Base 50)
Averaged from 63 records on June 21, 2013
WEATHER CONDITIONS BREAKOUT
WIND DIRECTION BREAKOUT
WEATHER BY HOUR - JUNE 21, 2013
[ °C ]   °F
Local TimeTemperatureDewpointHumidityBarometerVisibilityWind DirectionWind SpeedGust SpeedPrecipitationEventsConditions
1:52 AM64.9 °F59.0 °F81 %29.82 in10.0 miWNW (300°)9.2 mphMostly Cloudy
2:49 AM64.4 °F59.0 °F83 %29.90 in10.0 miNW (310°)6.9 mphPartly Cloudy
2:52 AM63.0 °F59.0 °F87 %29.82 in10.0 miWNW (300°)8.1 mphPartly Cloudy
3:10 AM62.6 °F59.0 °F88 %29.90 in10.0 miNW (320°)6.9 mphMostly Cloudy
3:48 AM64.4 °F60.8 °F88 %29.90 in10.0 miNNW (340°)16.1 mphOvercast
3:52 AM66.0 °F61.0 °F84 %29.82 in10.0 miNNW (340°)13.8 mph21.9 mphOvercast
4:42 AM64.4 °F62.6 °F94 %29.89 in10.0 miNorth (360°)15.0 mph24.2 mphMostly Cloudy
4:52 AM64.9 °F62.1 °F90 %29.81 in9.0 miNorth (360°)17.3 mphMostly Cloudy
4:59 AM64.4 °F62.6 °F94 %29.89 in10.0 miNorth (10°)16.1 mphMostly Cloudy
5:23 AM64.4 °F62.6 °F94 %29.90 in7.0 miNorth (10°)18.4 mphOvercast
5:52 AM64.9 °F62.1 °F90 %29.81 in6.0 miNNE (20°)17.3 mph24.2 mphThunderstormOvercast
6:09 AM66.2 °F62.6 °F88 %29.90 in6.0 miNNE (30°)16.1 mph23.0 mphOvercast
6:26 AM66.2 °F62.6 °F88 %29.92 in7.0 miNorth (350°)12.7 mphThunderstormOvercast
6:41 AM66.2 °F62.6 °F88 %29.92 in6.0 miENE (70°)8.1 mph18.4 mphOvercast
6:52 AM64.9 °F62.1 °F90 %29.80 in5.0 miEast (80°)15.0 mph19.6 mph0.01 inRainLight Rain
7:10 AM64.4 °F62.6 °F94 %29.87 in5.0 miEast (80°)19.6 mph25.3 mph0.01 inRain-ThunderstormLight Rain
7:18 AM64.4 °F62.6 °F94 %29.85 in6.0 miENE (70°)20.7 mph27.6 mph0.01 inRain-ThunderstormLight Rain
7:35 AM64.4 °F60.8 °F88 %29.81 in7.0 miENE (70°)26.5 mph34.5 mph0.01 inPartly Cloudy
7:52 AM63.0 °F61.0 °F93 %29.81 in6.0 miENE (70°)12.7 mph27.6 mph0.01 inThunderstormScattered Clouds
8:00 AM62.6 °F62.6 °F100 %29.92 in7.0 miNW (310°)10.4 mph20.7 mphThunderstormMostly Cloudy
8:37 AM64.4 °F62.6 °F94 %29.86 in1.8 miENE (70°)17.3 mph21.9 mph0.02 inRain-ThunderstormThunderstorms and Rain
8:44 AM64.4 °F62.6 °F94 %29.86 in1.0 miENE (70°)18.4 mph27.6 mph0.22 inRain-ThunderstormHeavy Thunderstorms and Rain
8:52 AM64.0 °F63.0 °F96 %29.87 in2.0 miSouth (190°)6.9 mph0.27 inRain-ThunderstormThunderstorms and Rain
9:02 AM64.4 °F62.6 °F94 %29.89 in3.0 miNNW (340°)8.1 mph0.03 inRain-ThunderstormThunderstorms and Rain
9:09 AM64.4 °F62.6 °F94 %29.90 in2.5 miNW (320°)10.4 mph0.07 inRain-ThunderstormRain
9:17 AM64.4 °F62.6 °F94 %29.93 in3.0 miWNW (300°)8.1 mph0.07 inRain-ThunderstormLight Rain
9:30 AM64.4 °F62.6 °F94 %29.93 in5.0 miWest (260°)5.8 mph0.07 inRain-ThunderstormLight Thunderstorms and Rain
9:36 AM62.6 °F62.6 °F100 %29.92 in0.8 miSSW (210°)17.3 mph29.9 mph0.07 inRain-ThunderstormLight Thunderstorms and Rain
9:44 AM60.8 °F59.0 °F94 %29.89 in0.2 miNorth (10°)16.1 mph29.9 mph0.67 inFog-Rain-ThunderstormHeavy Thunderstorms and Rain
9:47 AM60.8 °F59.0 °F94 %29.89 in3.0 miNorth (360°)13.8 mph26.5 mph0.69 inRain-ThunderstormThunderstorms and Rain
9:52 AM61.0 °F59.0 °F93 %29.84 in3.0 miNorth (350°)13.8 mph0.69 inRain-ThunderstormLight Thunderstorms and Rain
9:57 AM60.8 °F59.0 °F94 %29.90 in9.0 miNNW (340°)11.5 mph0.00 inRain-ThunderstormLight Thunderstorms and Rain
10:11 AM62.6 °F60.8 °F94 %29.89 in5.0 miNNW (330°)12.7 mph0.00 inScattered Clouds
10:23 AM62.6 °F60.8 °F94 %29.89 in10.0 miNNW (340°)11.5 mph0.00 inMostly Cloudy
10:36 AM62.6 °F60.8 °F94 %29.90 in10.0 miNNW (330°)10.4 mph0.00 inMostly Cloudy
10:52 AM64.0 °F62.1 °F93 %29.86 in10.0 miNorth (350°)9.2 mph0.00 inOvercast
11:52 AM64.9 °F63.0 °F93 %29.86 in8.0 miNNW (340°)10.4 mph0.00 inOvercast
12:08 PM64.4 °F62.6 °F94 %29.91 in6.0 miNNW (340°)10.4 mphOvercast
12:21 PM66.2 °F62.6 °F88 %29.91 in6.0 miNorth (350°)9.2 mph0.00 inRainLight Rain
12:52 PM66.0 °F63.0 °F90 %29.86 in10.0 miNorth (350°)15.0 mph0.01 inMostly Cloudy
1:16 PM66.2 °F62.6 °F88 %29.91 in10.0 miNorth (350°)18.4 mphMostly Cloudy
1:23 PM68.0 °F62.6 °F83 %29.91 in10.0 miNorth (360°)20.7 mph25.3 mphThunderstormMostly Cloudy
1:32 PM66.2 °F62.6 °F88 %29.91 in10.0 miNorth (350°)19.6 mphMostly Cloudy
1:49 PM66.2 °F60.8 °F83 %29.91 in10.0 miNNW (340°)19.6 mphOvercast
1:52 PM64.9 °F60.1 °F84 %29.86 in10.0 miNNW (340°)17.3 mph24.2 mphOvercast
2:12 PM64.4 °F60.8 °F88 %29.91 in10.0 miNNW (340°)17.3 mph26.5 mphOvercast
2:52 PM68.0 °F59.0 °F73 %29.86 in10.0 miNorth (350°)19.6 mphMostly Cloudy
3:52 PM73.0 °F61.0 °F66 %29.85 in10.0 miNorth (350°)17.3 mph24.2 mphScattered Clouds
4:39 PM69.8 °F60.8 °F73 %29.91 in10.0 miNNE (30°)17.3 mph23.0 mphThunderstormPartly Cloudy
4:52 PM69.1 °F59.0 °F70 %29.91 in10.0 miNE (50°)8.1 mph25.3 mphThunderstormThunderstorm
5:52 PM66.0 °F61.0 °F84 %29.88 in10.0 miNW (320°)9.2 mph0.15 inThunderstormScattered Clouds
5:59 PM64.4 °F60.8 °F88 %29.94 in10.0 miNW (320°)5.8 mphScattered Clouds
6:52 PM64.0 °F59.0 °F84 %29.89 in10.0 miNNW (330°)13.8 mph18.4 mph0.00 inOvercast
7:02 PM62.6 °F59.0 °F88 %29.93 in10.0 miNW (320°)10.4 mphThunderstormOvercast
7:15 PM62.6 °F59.0 °F88 %29.92 in10.0 miNNW (340°)5.8 mphThunderstormMostly Cloudy
7:23 PM62.6 °F59.0 °F88 %29.90 in10.0 miNNE (20°)10.4 mphScattered Clouds
7:52 PM63.0 °F59.0 °F87 %29.90 in10.0 miCalmClear
8:44 PM62.6 °F59.0 °F88 %29.98 in10.0 miNW (320°)8.1 mphMostly Cloudy
8:52 PM63.0 °F59.0 °F87 %29.92 in10.0 miVariable3.5 mphMostly Cloudy
9:17 PM62.6 °F59.0 °F88 %29.97 in10.0 miNW (320°)5.8 mphScattered Clouds
9:52 PM62.1 °F59.0 °F90 %29.93 in10.0 miNNW (330°)8.1 mphClear
10:52 PM62.1 °F59.0 °F90 %29.89 in10.0 miNorth (10°)5.8 mphClear
11:52 PM60.1 °F57.9 °F93 %29.84 in10.0 miCalmClear
Hourly data recorded from KRAP, located miles away from Rapid City, South Dakota







STORIES FROM OUR PARTNERS